GW1187 Weather Reports


Display with metric or nautical units.
time (UTC)temp
F
wind
direction
speed
MPH
gust
MPH
rain 1hr
in
rain 24hr
in
rain mn
in
humidity
%
barometer
mb
20260506044552 63 20 1.0 5.0 0.00 0.01 0.00 65 1008.9
20260506043047 62 0 0.0 4.0 0.00 0.01 0.00 65 1008.8
20260506041547 62 0 1.0 4.0 0.00 0.01 0.00 66 1008.9
20260506040047 63 0 0.0 5.0 0.00 0.01 0.00 65 1008.8
20260506034557 63 0 0.0 4.0 0.00 0.01 0.01 64 1008.9
20260506033041 64 21 3.0 6.0 0.00 0.01 0.01 64 1008.9
20260506031547 64 77 3.0 10.0 0.00 0.01 0.01 63 1008.9
20260506030046 64 56 1.0 6.0 0.00 0.01 0.01 64 1008.9
20260506024605 65 37 4.0 12.0 0.00 0.01 0.01 63 1009.0
20260506023044 65 18 2.0 7.0 0.00 0.01 0.01 63 1008.9
20260506021541 65 24 3.0 9.0 0.00 0.01 0.01 62 1008.9
20260506020040 65 30 2.0 9.0 0.00 0.01 0.01 62 1008.9
20260506014550 65 32 1.0 5.0 0.00 0.01 0.01 64 1008.7
20260506013101 65 348 0.0 2.0 0.00 0.01 0.01 67 1008.6
20260506011602 64 0 0.0 1.0 0.00 0.01 0.01 69 1008.6
20260506010043 63 0 0.0 0.0 0.01 0.01 0.01 81 1008.6
20260506004541 64 0 0.0 1.0 0.01 0.01 0.01 76 1008.4
20260506003041 65 0 0.0 1.0 0.01 0.01 0.01 73 1008.2
20260506001548 68 137 2.0 8.0 0.01 0.01 0.01 63 1008.1
20260506000050 72 44 3.0 10.0 0.00 0.00 0.00 47 1007.5
20260505234546 73 11 6.0 12.0 0.00 0.00 0.00 46 1006.5
20260505233045 73 80 7.0 14.0 0.00 0.00 0.00 45 1006.0
20260505231543 73 356 8.0 17.0 0.00 0.00 0.00 45 1005.8
20260505230057 74 345 6.0 14.0 0.00 0.00 0.00 45 1005.5
20260505224548 74 27 6.0 18.0 0.00 0.00 0.00 44 1005.6
20260505223056 75 323 7.0 15.0 0.00 0.00 0.00 43 1005.3
20260505221547 76 4 8.0 21.0 0.00 0.00 0.00 42 1005.3
20260505220048 77 42 5.0 23.0 0.00 0.00 0.00 42 1005.0
20260505214541 78 5 7.0 23.0 0.00 0.00 0.00 40 1004.8
20260505213056 78 17 8.0 19.0 0.00 0.00 0.00 39 1004.9
20260505211540 78 46 7.0 17.0 0.00 0.00 0.00 39 1004.6
20260505210047 79 19 7.0 22.0 0.00 0.00 0.00 37 1004.4
20260505204545 80 23 10.0 19.0 0.00 0.00 0.00 37 1004.3
20260505203051 79 299 6.0 15.0 0.00 0.00 0.00 37 1004.5
20260505201542 79 26 6.0 19.0 0.00 0.00 0.00 37 1004.5
20260505200040 79 311 5.0 15.0 0.00 0.00 0.00 36 1004.4
20260505194545 79 343 6.0 16.0 0.00 0.00 0.00 36 1004.6
20260505193045 80 330 7.0 21.0 0.00 0.00 0.00 36 1004.8
20260505191547 81 18 5.0 20.0 0.00 0.00 0.00 36 1004.7
20260505190043 80 359 8.0 22.0 0.00 0.00 0.00 36 1004.8
20260505184541 80 23 10.0 20.0 0.00 0.00 0.00 35 1005.1
20260505183056 80 46 6.0 18.0 0.00 0.00 0.00 35 1005.5
20260505181545 80 352 10.0 24.0 0.00 0.00 0.00 35 1005.9
20260505180046 80 342 11.0 19.0 0.00 0.00 0.00 34 1005.9
20260505174557 80 9 5.0 23.0 0.00 0.00 0.00 36 1005.9
20260505173046 80 27 5.0 17.0 0.00 0.00 0.00 36 1006.2
20260505171540 79 349 9.0 19.0 0.00 0.00 0.00 37 1006.2
20260505170047 78 311 7.0 16.0 0.00 0.00 0.00 38 1006.4
20260505164558 77 356 10.0 17.0 0.00 0.00 0.00 39 1006.7
20260505163048 77 346 5.0 16.0 0.00 0.00 0.00 40 1007.2
20260505161544 76 54 8.0 17.0 0.00 0.00 0.00 41 1007.5
20260505153105 74 117 7.0 17.0 0.00 0.00 0.00 45 1008.1
20260505151553 72 336 3.0 18.0 0.00 0.00 0.00 48 1008.4
20260505124548 59 17 3.0 8.0 0.00 0.00 0.00 67 1008.9
20260505123045 58 20 3.0 6.0 0.00 0.00 0.00 67 1009.0
20260505121544 57 68 0.0 8.0 0.00 0.00 0.00 69 1009.0
20260505120041 57 359 3.0 10.0 0.00 0.00 0.00 69 1009.0
20260505114548 56 313 1.0 4.0 0.00 0.00 0.00 69 1009.1
20260505113047 55 32 1.0 5.0 0.00 0.00 0.00 71 1008.9
20260505111553 53 4 2.0 4.0 0.00 0.00 0.00 73 1008.9
20260505101540 50 0 0.0 0.0 0.00 0.00 0.00 76 1008.4
20260505100052 50 27 1.0 2.0 0.00 0.00 0.00 75 1008.5
20260505094547 51 26 2.0 4.0 0.00 0.00 0.00 74 1008.4
20260505093045 51 37 2.0 4.0 0.00 0.00 0.00 73 1008.5
20260505091553 51 18 2.0 4.0 0.00 0.00 0.00 73 1008.6
20260505090052 52 357 3.0 6.0 0.00 0.00 0.00 72 1008.8
20260505084540 52 10 2.0 4.0 0.00 0.00 0.00 71 1008.6
20260505083047 52 18 1.0 4.0 0.00 0.00 0.00 71 1008.8
20260505081558 52 27 1.0 4.0 0.00 0.00 0.00 71 1008.7
20260505080049 53 44 1.0 3.0 0.00 0.00 0.00 70 1008.7
20260505074602 54 43 2.0 5.0 0.00 0.00 0.00 69 1008.7
20260505073041 54 32 3.0 7.0 0.00 0.00 0.00 68 1008.7
20260505071540 53 23 4.0 8.0 0.00 0.00 0.00 69 1008.6
20260505070047 52 41 2.0 5.0 0.00 0.00 0.00 71 1008.5
20260505064547 52 0 0.0 2.0 0.00 0.00 0.00 71 1008.7
20260505063045 52 22 1.0 3.0 0.00 0.00 0.00 71 1008.9
20260505061606 51 0 0.0 0.0 0.00 0.00 0.00 73 1009.1
20260505060045 51 0 0.0 0.0 0.00 0.00 0.00 73 1009.2
20260505054555 51 0 0.0 0.0 0.00 0.00 0.00 72 1009.2